User: anonymous   Login
Location: Frankfurt am Main
(50.1109°N, 8.6821°E)
Time: 06:20:36
(UTC+01:00)
Language:

JY1SAT - Orbit

View from above orbital plane
View from above orbital plane
View from above satellite
View from above satellite

Ground track
Ground track

The orbit data is extracted from the following two-line orbital elements,

1 43803U 18099AX  22027.73212652  .00001443  00000-0  13257-3 0  9999
2 43803  97.6386  98.2598 0015344  25.5148 334.6827 14.96275162172020
Epoch (UTC): 27 January 2022 17:34:15
Eccentricity: 0.0015344
inclination: 97.6386°
perigee height: 568 km
apogee height: 589 km
right ascension of ascending node: 98.2598°
argument of perigee: 25.5148°
revolutions per day: 14.96275162
mean anomaly at epoch: 334.6827°
orbit number at epoch: 17202

The dashed part of the orbit path shows where the satellite is in the earth's shadow,  

DLR